This is the latest recevied weather packets stored in our database for station/object KD8OZS. If no packets are shown the sender has not sent any weather packets the latest 10 day(s).
| Time | Temp. | Humidity | Pressure | Rain* | Wind** | Luminosity | Snow |
|---|---|---|---|---|---|---|---|
| 1778045789 | 8.89° C | 98% | 999.8 hPa | 7.11 mm | - | 0 W/m² | - |
| 1778045487 | 8.89° C | 98% | 1000.3 hPa | 6.1 mm | - | 0 W/m² | - |
| 1778045185 | 8.89° C | 98% | 1000.3 hPa | 4.83 mm | - | 0 W/m² | - |
| 1778044883 | 8.89° C | 98% | 1000.2 hPa | 4.83 mm | - | 0 W/m² | - |
| 1778044579 | 8.89° C | 98% | 1000.2 hPa | 3.05 mm | - | 0 W/m² | - |
| 1778044276 | 9.44° C | 98% | 1000.1 hPa | 0 mm | - | 0 W/m² | - |
| 1778043974 | 9.44° C | 98% | 1000.4 hPa | 0 mm | - | 0 W/m² | - |
| 1778043671 | 9.44° C | 98% | 1000.3 hPa | 0 mm | - | 0 W/m² | - |
| 1778043368 | 9.44° C | 98% | 1000.6 hPa | 1.78 mm | - | 0 W/m² | - |
| 1778043064 | 9.44° C | 98% | 1000.3 hPa | 1.78 mm | - | 0 W/m² | - |
| 1778042762 | 9.44° C | 98% | 1000.2 hPa | 1.27 mm | - | 0 W/m² | - |
| 1778042458 | 9.44° C | 98% | 1000.4 hPa | 1.27 mm | - | 0 W/m² | - |
| 1778042156 | 9.44° C | 98% | 1000.4 hPa | 1.78 mm | - | 0 W/m² | - |
| 1778041854 | 9.44° C | 98% | 1000.6 hPa | 1.78 mm | - | 0 W/m² | - |
| 1778041553 | 9.44° C | 98% | 1000.4 hPa | 1.27 mm | - | 0 W/m² | - |
| 1778041250 | 9.44° C | 98% | 1000.4 hPa | 1.27 mm | - | 0 W/m² | - |
| 1778040949 | 9.44° C | 98% | 1000.4 hPa | 1.78 mm | - | 0 W/m² | - |
| 1778040645 | 9.44° C | 98% | 1000.4 hPa | 1.78 mm | - | 0 W/m² | - |
| 1778040343 | 9.44° C | 98% | 1000.5 hPa | 3.05 mm | - | 0 W/m² | - |
| 1778040039 | 9.44° C | 98% | 1000.6 hPa | 3.05 mm | - | 0 W/m² | - |
| 1778039736 | 9.44° C | 98% | 1000.9 hPa | 3.05 mm | - | 0 W/m² | - |
| 1778039433 | 9.44° C | 98% | 1001 hPa | 3.05 mm | - | 0 W/m² | - |
| 1778039130 | 9.44° C | 98% | 1001 hPa | 4.83 mm | - | 0 W/m² | - |
| 1778038827 | 9.44° C | 98% | 1000.9 hPa | 6.1 mm | - | 0 W/m² | - |
| 1778038524 | 9.44° C | 98% | 1000.9 hPa | 4.83 mm | - | 0 W/m² | - |
* Rain latest hour (hover to see other rain measurements)
** Current wind speed in m/s (hover to see current wind gust speed)